GW7918 Weather Reports


time (UTC)temp
C
wind
direction
speed
KPH
gust
KPH
rain 1hr
cm
rain 24hr
cm
rain mn
cm
humidity
%
barometer
mb
20260902103813 31 113 8.0 8.0 0.00 0.00 0.00 77 1011.2
20260902103313 31 180 6.4 8.0 0.00 0.00 0.00 76 1011.2
20260902102812 31 118 6.4 8.0 0.00 0.00 0.00 76 1011.2
20260902102314 31 126 3.2 4.8 0.00 0.00 0.00 76 1011.2
20260902101812 31 70 1.6 4.8 0.00 0.00 0.00 77 1011.2
20260902101314 31 80 1.6 4.8 0.00 0.00 0.00 78 1010.8
20260902100813 31 126 3.2 4.8 0.00 0.00 0.00 77 1010.8
20260902100311 31 85 1.6 4.8 0.00 0.00 0.00 77 1010.8
20260902095812 31 101 4.8 8.0 0.00 0.00 0.00 77 1010.8
20260902095312 31 94 6.4 8.0 0.00 0.00 0.00 77 1010.8
20260902094812 31 146 1.6 4.8 0.00 0.00 0.00 77 1010.8
20260902094312 31 168 4.8 8.0 0.00 0.00 0.00 77 1010.8
20260902093812 31 151 9.7 11.3 0.00 0.00 0.00 77 1010.8
20260902093312 31 94 4.8 8.0 0.00 0.00 0.00 77 1010.8
20260902092812 31 84 4.8 8.0 0.00 0.00 0.00 78 1011.2
20260902092312 31 116 6.4 8.0 0.00 0.00 0.00 77 1011.2
20260902091814 31 141 3.2 4.8 0.00 0.00 0.00 77 1010.8
20260902091312 31 99 6.4 11.3 0.00 0.00 0.00 76 1010.8
20260902090813 31 101 1.6 4.8 0.00 0.00 0.00 76 1011.2
20260902090312 31 105 6.4 8.0 0.00 0.00 0.00 76 1011.2
20260902085813 31 94 0.0 0.0 0.00 0.00 0.00 75 1010.8
20260902085312 32 156 8.0 11.3 0.00 0.00 0.00 75 1011.2
20260902084818 32 89 8.0 8.0 0.00 0.00 0.00 74 1011.2
20260902084312 32 144 8.0 16.1 0.00 0.00 0.00 74 1011.2
20260902083812 32 153 11.3 16.1 0.00 0.00 0.00 74 1011.2
20260902083312 32 117 0.0 4.8 0.00 0.00 0.00 74 1011.5
20260902082812 32 171 6.4 11.3 0.00 0.00 0.00 72 1011.5
20260902082313 32 143 8.0 8.0 0.00 0.00 0.00 71 1011.5
20260902081813 32 162 8.0 11.3 0.00 0.00 0.00 71 1011.9
20260902081313 32 148 8.0 11.3 0.00 0.00 0.00 71 1011.5
20260902080813 33 178 8.0 8.0 0.00 0.00 0.00 69 1011.9
20260902080312 33 119 4.8 8.0 0.00 0.00 0.00 69 1011.9
20260902075812 33 89 8.0 11.3 0.00 0.00 0.00 69 1011.9
20260902075314 33 162 8.0 11.3 0.00 0.00 0.00 68 1011.9
20260902074813 33 164 4.8 8.0 0.00 0.00 0.00 66 1011.5
20260902074312 33 159 4.8 8.0 0.00 0.00 0.00 67 1011.9
20260902073813 34 208 8.0 11.3 0.00 0.00 0.00 65 1011.9
20260902073312 34 173 12.9 16.1 0.00 0.00 0.00 63 1011.9
20260902072814 35 133 14.5 16.1 0.00 0.00 0.00 62 1011.9
20260902072312 35 180 11.3 16.1 0.00 0.00 0.00 63 1012.2
20260902071812 35 156 11.3 11.3 0.00 0.00 0.00 62 1011.9
20260902071312 35 219 14.5 19.3 0.00 0.00 0.00 63 1011.9
20260902070812 35 179 9.7 11.3 0.00 0.00 0.00 62 1011.9
20260902070312 35 181 4.8 8.0 0.00 0.00 0.00 62 1011.9
20260902065813 34 227 8.0 11.3 0.00 0.00 0.00 62 1012.2
20260902065313 34 254 1.6 4.8 0.00 0.00 0.00 65 1012.2
20260902064812 34 229 14.5 16.1 0.00 0.00 0.00 64 1012.5
20260902064312 34 217 16.1 19.3 0.00 0.00 0.00 66 1012.5
20260902063812 34 273 6.4 8.0 0.00 0.00 0.00 66 1012.2
20260902063313 34 166 4.8 8.0 0.00 0.00 0.00 70 1012.5
20260902062812 35 191 16.1 19.3 0.00 0.00 0.00 66 1012.5
20260902062313 35 154 17.7 24.1 0.00 0.00 0.00 64 1012.5
20260902061812 35 216 6.4 8.0 0.00 0.00 0.00 60 1012.9
20260902061312 35 201 1.6 4.8 0.00 0.00 0.00 58 1012.9
20260902060812 35 185 6.4 8.0 0.00 0.00 0.00 58 1012.9
20260902060312 35 234 11.3 16.1 0.00 0.00 0.00 59 1013.2
20260902055812 35 308 4.8 8.0 0.00 0.00 0.00 59 1013.2
20260902055312 35 222 8.0 11.3 0.00 0.00 0.00 59 1013.5
20260902054813 34 308 9.7 11.3 0.00 0.00 0.00 57 1013.5
20260902054312 34 168 1.6 4.8 0.00 0.00 0.00 62 1013.5
20260902053813 34 221 0.0 4.8 0.00 0.00 0.00 61 1013.5
20260902053312 34 221 8.0 11.3 0.00 0.00 0.00 62 1013.5
20260902052815 34 246 6.4 8.0 0.00 0.00 0.00 61 1013.5
20260902052312 34 156 9.7 11.3 0.00 0.00 0.00 61 1013.5
20260902051812 34 294 4.8 8.0 0.00 0.00 0.00 63 1014.2
20260902051312 34 270 4.8 8.0 0.00 0.00 0.00 62 1014.2
20260902050812 34 28 4.8 8.0 0.00 0.00 0.00 63 1014.2
20260902050312 33 156 11.3 11.3 0.00 0.00 0.00 63 1014.2
20260902045812 33 267 9.7 11.3 0.00 0.00 0.00 64 1014.2
20260902045312 33 214 4.8 8.0 0.00 0.00 0.00 63 1014.2
20260902044813 33 187 14.5 16.1 0.00 0.00 0.00 63 1014.2
20260902044312 33 191 0.0 4.8 0.00 0.00 0.00 63 1014.2
20260902043812 33 203 17.7 24.1 0.00 0.00 0.00 63 1014.2
20260902043312 33 163 3.2 4.8 0.00 0.00 0.00 64 1014.2
20260902042812 33 258 8.0 11.3 0.00 0.00 0.00 64 1014.6
20260902042317 33 262 6.4 8.0 0.00 0.00 0.00 62 1014.6
20260902041813 33 241 8.0 11.3 0.00 0.00 0.00 65 1014.6
20260902041313 33 150 4.8 4.8 0.00 0.00 0.00 65 1014.6
20260902040812 33 241 9.7 11.3 0.00 0.00 0.00 65 1014.6
20260902040312 33 185 16.1 19.3 0.00 0.00 0.00 64 1014.6
20260902035812 33 100 8.0 11.3 0.00 0.00 0.00 64 1014.6
20260902035312 33 129 14.5 16.1 0.00 0.00 0.00 64 1014.6
20260902034814 33 166 0.0 4.8 0.00 0.00 0.00 67 1014.9
20260902034312 33 136 8.0 11.3 0.00 0.00 0.00 66 1014.9
20260902033812 33 195 6.4 8.0 0.00 0.00 0.00 68 1014.9
20260902033313 33 137 11.3 16.1 0.00 0.00 0.00 66 1014.9
20260902032812 33 107 19.3 24.1 0.00 0.00 0.00 67 1015.2
20260902032313 33 202 9.7 11.3 0.00 0.00 0.00 68 1015.2
20260902031813 32 170 8.0 11.3 0.00 0.00 0.00 68 1015.2
20260902031320 32 101 4.8 8.0 0.00 0.00 0.00 70 1015.2
20260902030842 32 188 12.9 16.1 0.00 0.00 0.00 69 1014.9
20260902030314 32 167 11.3 16.1 0.00 0.00 0.00 69 1015.2
20260902025812 32 155 11.3 16.1 0.00 0.00 0.00 70 1015.2
20260902025313 32 148 9.7 16.1 0.00 0.00 0.00 69 1015.2
20260902024812 32 155 14.5 16.1 0.00 0.00 0.00 69 1015.2
20260902024313 32 143 3.2 4.8 0.00 0.00 0.00 69 1015.2
20260902023815 32 156 8.0 8.0 0.00 0.00 0.00 69 1015.2
20260902023312 31 150 8.0 11.3 0.00 0.00 0.00 68 1015.2
20260902022813 31 137 11.3 16.1 0.00 0.00 0.00 69 1015.2
20260902022312 31 152 0.0 4.8 0.00 0.00 0.00 70 1015.2
20260902021813 31 151 3.2 4.8 0.00 0.00 0.00 73 1014.9
20260902021312 31 142 4.8 4.8 0.00 0.00 0.00 72 1015.2
20260902020814 30 136 8.0 11.3 0.00 0.00 0.00 72 1015.2
20260902020312 30 136 8.0 11.3 0.00 0.00 0.00 72 1015.2
20260902015812 30 119 8.0 8.0 0.00 0.00 0.00 73 1015.6
20260902015314 30 182 6.4 8.0 0.00 0.00 0.00 72 1015.6
20260902014813 30 100 8.0 11.3 0.00 0.00 0.00 72 1015.6
20260902014312 30 97 9.7 11.3 0.00 0.00 0.00 74 1015.6
20260902013813 30 133 6.4 8.0 0.00 0.00 0.00 75 1015.6
20260902013312 30 123 8.0 8.0 0.00 0.00 0.00 74 1015.2
20260902012812 29 173 8.0 11.3 0.00 0.00 0.00 75 1015.6
20260902012312 28 138 4.8 8.0 0.00 0.00 0.00 76 1015.6
20260902011813 28 149 6.4 8.0 0.00 0.00 0.00 77 1015.6
20260902011312 28 155 4.8 8.0 0.00 0.00 0.00 76 1015.6
20260902010814 28 141 1.6 4.8 0.00 0.00 0.00 78 1015.9
20260902010315 27 224 4.8 8.0 0.00 0.00 0.00 79 1015.9
20260902005813 27 215 4.8 11.3 0.00 0.00 0.00 83 1015.9
20260902005312 27 218 8.0 11.3 0.00 0.00 0.00 86 1015.9
20260902004812 27 203 8.0 11.3 0.00 0.00 0.00 86 1015.9
20260902004312 28 196 19.3 24.1 0.00 0.00 0.00 87 1015.9
20260902003813 28 199 11.3 11.3 0.00 0.00 0.00 87 1015.9
20260902003312 28 204 11.3 11.3 0.00 0.00 0.00 88 1015.9
20260902002812 28 259 11.3 11.3 0.00 0.00 0.00 88 1015.9
20260902002315 27 206 4.8 8.0 0.00 0.00 0.00 88 1015.6
20260902001812 27 168 0.0 4.8 0.00 0.00 0.00 88 1015.2
20260902001312 27 117 0.0 0.0 0.00 0.00 0.00 89 1015.2
20260902000812 27 107 0.0 0.0 0.00 0.00 0.00 89 1015.2
20260902000312 27 136 0.0 0.0 0.00 0.00 0.00 90 1015.2
20260901235812 27 189 0.0 0.0 0.00 0.00 0.00 91 1014.9
20260901235313 27 154 0.0 0.0 0.00 0.00 0.00 92 1015.2
20260901234812 27 126 0.0 0.0 0.00 0.00 0.00 92 1014.9
20260901234312 27 104 0.0 0.0 0.00 0.00 0.00 92 1014.9
20260901233812 26 211 0.0 0.0 0.00 0.00 0.00 92 1014.6
20260901233313 26 209 0.0 0.0 0.00 0.00 0.00 92 1014.6
20260901232812 26 203 0.0 0.0 0.00 0.00 0.00 93 1014.6
20260901232312 27 190 0.0 0.0 0.00 0.00 0.00 92 1014.6
20260901231812 27 19 0.0 0.0 0.00 0.00 0.00 92 1014.2
20260901231314 27 3 0.0 0.0 0.00 0.00 0.00 92 1014.6
20260901230812 27 107 0.0 0.0 0.00 0.00 0.00 92 1014.2
20260901230312 27 357 0.0 0.0 0.00 0.00 0.00 92 1014.2
20260901225812 27 64 0.0 0.0 0.00 0.00 0.00 92 1014.2
20260901225313 27 190 0.0 0.0 0.00 0.00 0.00 92 1014.2
20260901224812 27 240 0.0 0.0 0.00 0.00 0.00 91 1013.9
20260901224312 27 233 0.0 0.0 0.00 0.00 0.00 91 1013.9
20260901223812 27 299 0.0 0.0 0.00 0.00 0.00 91 1014.2
20260901223313 27 208 0.0 0.0 0.00 0.00 0.00 91 1013.9
20260901222812 27 244 0.0 0.0 0.00 0.00 0.00 90 1013.5
20260901222312 27 40 0.0 0.0 0.00 0.00 0.00 90 1013.9
20260901221813 27 170 0.0 0.0 0.00 0.00 0.00 90 1013.9
20260901221312 27 73 0.0 0.0 0.00 0.00 0.00 90 1013.5
20260901220812 27 65 0.0 0.0 0.00 0.00 0.00 90 1013.5
20260901220312 27 167 0.0 0.0 0.00 0.00 0.00 90 1013.5
20260901215812 27 58 0.0 0.0 0.00 0.00 0.00 90 1013.5
20260901215313 27 91 0.0 0.0 0.00 0.00 0.00 91 1013.5
20260901214812 27 54 0.0 0.0 0.00 0.00 0.00 91 1013.5
20260901214313 27 27 0.0 0.0 0.00 0.00 0.00 91 1013.5
20260901213814 27 19 0.0 0.0 0.00 0.00 0.00 91 1013.2
20260901213312 27 126 0.0 0.0 0.00 0.00 0.00 91 1013.5
20260901212812 27 350 0.0 0.0 0.00 0.00 0.00 91 1013.5
20260901212313 27 150 0.0 0.0 0.00 0.00 0.00 92 1013.2
20260901211814 27 198 0.0 0.0 0.00 0.00 0.00 92 1013.2
20260901211312 27 72 0.0 0.0 0.00 0.00 0.00 92 1013.2
20260901210819 27 54 0.0 0.0 0.00 0.00 0.00 92 1013.2
20260901210314 27 77 0.0 0.0 0.00 0.00 0.00 93 1013.2
20260901205813 27 162 0.0 0.0 0.00 0.00 0.00 92 1013.5
20260901205313 27 234 0.0 0.0 0.00 0.00 0.00 92 1013.2
20260901204813 27 225 0.0 0.0 0.00 0.00 0.00 92 1013.2
20260901204312 27 185 0.0 0.0 0.00 0.00 0.00 92 1013.2
20260901203812 27 186 0.0 0.0 0.00 0.00 0.00 92 1013.2
20260901203313 27 196 0.0 0.0 0.00 0.00 0.00 92 1013.2
20260901202812 27 205 0.0 0.0 0.00 0.00 0.00 92 1013.5
20260901202315 27 112 0.0 0.0 0.00 0.00 0.00 92 1013.5
20260901201813 27 102 0.0 0.0 0.00 0.00 0.00 92 1013.5
20260901201313 27 110 0.0 0.0 0.00 0.00 0.00 92 1013.5
20260901200815 27 96 0.0 0.0 0.00 0.00 0.00 92 1013.2
20260901200314 27 36 0.0 0.0 0.00 0.00 0.00 92 1013.2
20260901195813 27 191 0.0 0.0 0.00 0.00 0.00 92 1013.5
20260901195313 27 290 0.0 0.0 0.00 0.00 0.00 91 1013.5
20260901194813 27 211 0.0 0.0 0.00 0.00 0.00 91 1013.5
20260901194312 27 188 0.0 0.0 0.00 0.00 0.00 91 1013.5
20260901193813 27 103 0.0 0.0 0.00 0.00 0.00 91 1013.5
20260901193313 27 111 1.6 4.8 0.00 0.00 0.00 91 1013.5
20260901192812 27 124 0.0 0.0 0.00 0.00 0.00 90 1013.5
20260901192313 27 106 0.0 0.0 0.00 0.00 0.00 90 1013.9
20260901191813 27 132 0.0 4.8 0.00 0.00 0.00 90 1013.5
20260901191316 27 148 1.6 4.8 0.00 0.00 0.00 90 1013.5
20260901190814 27 122 0.0 0.0 0.00 0.00 0.00 90 1013.5
20260901190313 27 118 0.0 0.0 0.00 0.00 0.00 90 1013.5
20260901185812 28 172 0.0 0.0 0.00 0.00 0.00 89 1013.9
20260901185312 28 196 0.0 0.0 0.00 0.00 0.00 89 1013.9
20260901184813 28 119 0.0 0.0 0.00 0.00 0.00 89 1013.9
20260901184314 28 182 0.0 0.0 0.00 0.00 0.00 89 1014.2
20260901183813 28 183 0.0 0.0 0.00 0.00 0.00 89 1014.2
20260901183312 28 119 0.0 0.0 0.00 0.00 0.00 89 1014.2
20260901182813 28 102 0.0 4.8 0.00 0.00 0.00 88 1014.2
20260901182312 28 158 1.6 4.8 0.00 0.00 0.00 88 1014.2
20260901181813 28 184 0.0 0.0 0.00 0.00 0.00 88 1014.6
20260901181316 28 187 0.0 0.0 0.00 0.00 0.00 88 1014.6
20260901180813 28 199 0.0 0.0 0.00 0.00 0.00 88 1014.6
20260901180313 28 106 0.0 0.0 0.00 0.00 0.00 88 1014.6
20260901175812 28 111 0.0 0.0 0.00 0.00 0.00 88 1014.6
20260901175313 28 348 0.0 0.0 0.00 0.00 0.00 88 1014.9
20260901174812 28 82 0.0 0.0 0.00 0.00 0.00 88 1014.6
20260901174313 28 166 0.0 0.0 0.00 0.00 0.00 87 1014.9
20260901173813 28 152 0.0 0.0 0.00 0.00 0.00 87 1014.9
20260901173313 28 177 0.0 0.0 0.00 0.00 0.00 87 1014.6
20260901172816 28 146 1.6 4.8 0.00 0.00 0.00 87 1014.6
20260901172312 28 128 0.0 0.0 0.00 0.00 0.00 87 1014.9
20260901171812 28 119 0.0 0.0 0.00 0.00 0.00 87 1014.9
20260901171314 28 175 0.0 0.0 0.00 0.00 0.00 87 1014.9
20260901170813 28 176 0.0 0.0 0.00 0.00 0.00 87 1015.2
20260901170312 28 207 0.0 0.0 0.00 0.00 0.00 87 1015.2
20260901165813 28 239 0.0 0.0 0.00 0.00 0.00 87 1015.2
20260901165313 28 155 0.0 0.0 0.00 0.00 0.00 87 1015.2
20260901164815 28 152 0.0 0.0 0.00 0.00 0.00 87 1014.9
20260901164312 28 181 0.0 0.0 0.00 0.00 0.00 87 1014.9
20260901163813 28 202 0.0 0.0 0.00 0.00 0.00 87 1014.9
20260901163312 28 206 0.0 0.0 0.00 0.00 0.00 87 1014.9
20260901162812 28 243 0.0 0.0 0.00 0.00 0.00 87 1014.9
20260901162313 28 235 0.0 0.0 0.00 0.00 0.00 86 1015.2
20260901161814 28 291 0.0 0.0 0.00 0.00 0.00 86 1014.9
20260901161313 28 272 0.0 0.0 0.00 0.00 0.00 86 1014.9
20260901160812 28 244 0.0 0.0 0.00 0.00 0.00 85 1014.6
20260901160313 28 138 0.0 0.0 0.00 0.00 0.00 85 1014.9
20260901155813 28 199 0.0 0.0 0.00 0.00 2.26 85 1014.9
20260901155312 28 185 0.0 0.0 0.00 0.00 2.26 85 1014.9
20260901154812 28 143 0.0 0.0 0.00 0.00 2.26 85 1014.9
20260901154312 28 183 0.0 0.0 0.00 0.00 2.26 85 1014.9
20260901153813 28 175 0.0 0.0 0.00 0.00 2.26 85 1014.9
20260901153312 28 174 0.0 0.0 0.00 0.00 2.26 85 1014.6
20260901152812 28 119 0.0 0.0 0.00 0.00 2.26 85 1014.9
20260901152315 28 130 0.0 4.8 0.00 0.00 2.26 84 1014.6
20260901151812 28 186 0.0 0.0 0.00 0.00 2.26 84 1014.6
20260901151312 28 208 3.2 4.8 0.00 0.00 2.26 84 1014.9
20260901150813 28 138 3.2 4.8 0.00 0.00 2.26 83 1014.9
20260901150313 28 143 0.0 0.0 0.00 0.00 2.26 83 1014.6
20260901145813 29 124 0.0 0.0 0.00 0.00 2.26 83 1014.6
20260901145312 29 248 0.0 0.0 0.00 0.00 2.26 83 1014.6
20260901144812 29 145 0.0 0.0 0.00 0.00 2.26 83 1014.6
20260901144313 29 263 0.0 0.0 0.00 0.00 2.26 82 1014.2
20260901143812 29 318 0.0 0.0 0.00 0.00 2.26 82 1014.2
20260901143312 29 318 0.0 0.0 0.00 0.00 2.26 82 1014.2
20260901142812 29 318 0.0 0.0 0.00 0.00 2.26 82 1014.2
20260901142314 29 318 0.0 0.0 0.00 0.00 2.26 81 1014.2
20260901141812 29 318 0.0 0.0 0.00 0.00 2.26 81 1013.9
20260901141313 29 318 0.0 0.0 0.00 0.00 2.26 81 1013.9
20260901140814 29 318 0.0 0.0 0.00 0.00 2.26 80 1013.9
20260901140312 29 331 0.0 0.0 0.00 0.00 2.26 80 1013.9
20260901135815 29 18 1.6 4.8 0.00 0.00 2.26 79 1014.2
20260901135312 29 38 0.0 0.0 0.00 0.00 2.26 79 1013.9
20260901134813 29 321 0.0 0.0 0.00 0.00 2.26 80 1013.9
20260901134313 29 225 0.0 0.0 0.00 0.00 2.26 80 1013.9
20260901133813 29 46 0.0 0.0 0.00 0.00 2.26 80 1013.5
20260901133313 29 91 0.0 0.0 0.00 0.00 2.26 80 1013.5
20260901132812 29 165 0.0 4.8 0.00 0.00 2.26 80 1013.5
20260901132313 29 77 0.0 4.8 0.00 0.00 2.26 80 1013.5
20260901131812 29 111 0.0 0.0 0.00 0.00 2.26 80 1013.5
20260901131313 30 97 1.6 4.8 0.00 0.00 2.26 80 1013.5
20260901130813 30 118 4.8 4.8 0.00 0.00 2.26 80 1013.5
20260901130313 30 120 6.4 8.0 0.00 0.00 2.26 80 1013.5
20260901125814 30 117 1.6 4.8 0.00 0.00 2.26 80 1013.2
20260901125314 30 120 0.0 0.0 0.00 0.00 2.26 78 1013.5
20260901124812 30 66 4.8 8.0 0.00 0.00 2.26 78 1013.2
20260901124312 30 51 1.6 4.8 0.00 0.00 2.26 78 1013.2
20260901123812 30 84 0.0 4.8 0.00 0.00 2.26 78 1013.5
20260901123312 30 99 4.8 8.0 0.00 0.00 2.26 78 1013.2
20260901122813 30 77 6.4 8.0 0.00 0.00 2.26 79 1013.2
20260901122312 30 75 4.8 8.0 0.00 0.00 2.26 79 1013.2
20260901121812 30 69 1.6 4.8 0.00 0.00 2.26 79 1013.2
20260901121313 30 50 8.0 11.3 0.00 0.00 2.26 79 1013.2
20260901120812 30 27 4.8 8.0 0.00 0.00 2.26 80 1012.9
20260901120312 30 69 3.2 4.8 0.00 0.00 2.26 80 1012.9
20260901115814 30 52 1.6 4.8 0.00 0.00 2.26 81 1012.9
20260901115312 30 53 0.0 4.8 0.00 0.00 2.26 82 1013.2
20260901114813 30 337 0.0 0.0 0.00 0.00 2.26 82 1012.9
20260901114312 30 33 8.0 8.0 0.00 0.00 2.26 83 1012.9
20260901113812 30 3 6.4 8.0 0.00 0.00 2.26 83 1012.9
20260901113313 30 9 9.7 11.3 0.00 0.00 2.26 82 1012.5
20260901112813 30 26 8.0 11.3 0.00 0.00 2.26 82 1012.9
20260901112312 30 19 4.8 8.0 0.00 0.00 2.26 82 1012.5
20260901111812 30 26 3.2 4.8 0.00 0.00 2.26 82 1012.9
20260901111312 30 23 0.0 0.0 0.00 0.00 2.26 82 1012.5
20260901110812 30 9 0.0 0.0 0.00 0.00 2.26 82 1012.9
20260901110313 30 14 4.8 4.8 0.00 0.00 2.26 82 1012.5
20260901105812 30 21 0.0 4.8 0.00 0.00 2.26 82 1012.9
20260901105313 30 4 0.0 0.0 0.00 0.00 2.26 82 1012.9
20260901104812 30 92 4.8 8.0 0.00 0.00 2.26 82 1012.9
20260901104313 30 50 0.0 4.8 0.00 0.00 2.26 81 1012.5